#timestamp,LO_Frequency,Hit,StdDev 
1513990815.4,286046996.5,N
1513990835.2,286046997.0,N
1513990855.1,286046997.2,N
1513990856.0,286046997.2,N
1513990875.8,286046996.2,N
1513990895.6,286046994.3,N
1513990915.5,286046992.6,N
1513990935.3,286046985.8,N
1513990955.1,286046985.9,N
1513990975.9,286046980.8,N
1513990995.7,286046981.6,N
1513991015.5,286046978.6,N
1513991035.4,286046974.3,N
1513991055.2,286046978.6,N
1513991075.0,286046974.9,N
1513991075.9,286046974.9,N
1513991095.7,286046969.6,N
1513991115.6,286046966.1,N
1513991135.4,286046966.1,N
1513991155.2,286046963.4,N
1513991175.1,286046963.4,N
1513991176.0,286046963.4,N
1513991195.8,286046961.8,N
1513991215.6,286046958.2,N
1513991235.5,286046956.5,N
1513991255.3,286046955.3,N
1513991275.1,286046956.1,N
1513991295.9,286046952.7,Y
1513991315.7,286046972.5,P
1513991335.5,286046973.2,P
1513991355.4,286046973.9,P
1513991375.2,286046972.9,Y
1513991395.0,286046999.8,P
1513991395.9,286046999.8,N
1513991415.8,286047004.8,N
1513991435.6,286047004.3,N
1513991455.4,286047003.3,N
1513991475.3,286047006.9,N
1513991495.1,286047007.6,N
1513991496.0,286047007.6,N
1513991515.8,286047003.8,N
1513991535.7,286047003.5,N
1513991555.5,286047004.8,N
1513991575.3,286047007.7,N
1513991595.1,286047009.2,N
1513991615.9,286047010.6,N
1513991635.7,286047012.0,N
1513991655.5,286047008.7,N
1513991675.4,286047004.8,N
1513991695.2,286047008.2,N
1513991715.0,286047006.9,N
1513991715.9,286047006.9,N
1513991735.8,286047005.0,N
1513991755.6,286047008.0,N
1513991775.4,286047004.6,N
1513991795.3,286047003.1,N
1513991815.1,286047007.4,N
1513991816.0,286047007.4,N
1513991835.8,286047004.0,N
1513991855.7,286047007.9,N
1513991875.5,286047008.1,N
1513991895.3,286047010.1,N
1513991915.2,286047010.6,Y
1513991935.9,286047000.9,P
1513991955.7,286046996.8,N
1513991975.6,286046993.6,N
1513991995.4,286046990.1,N
1513992015.2,286046990.8,N
1513992035.0,286046995.5,N
1513992035.9,286046995.5,N
1513992055.8,286046997.5,N
1513992075.6,286046996.9,N
1513992095.4,286047001.8,N
1513992115.3,286047005.5,N
1513992135.1,286047004.8,N
1513992136.0,286047004.8,N
1513992155.8,286047010.3,N
1513992175.7,286047012.8,N
1513992195.5,286047009.8,N
1513992215.3,286047011.3,N
1513992235.2,286047020.4,N
1513992255.9,286047020.5,N
1513992275.7,286047023.7,N
1513992295.5,286047025.1,N
1513992315.4,286047024.3,N
1513992335.2,286047030.0,N
1513992355.0,286047027.5,N
1513992355.9,286047027.5,N
1513992375.8,286047026.4,N
1513992395.6,286047026.4,N
1513992415.4,286047025.7,N
1513992435.3,286047028.9,N
1513992455.1,286047034.2,N
1513992456.0,286047034.2,N
1513992475.8,286047031.8,N
1513992495.7,286047032.8,N
1513992515.5,286047031.0,N
1513992535.3,286047033.7,N
1513992555.2,286047039.5,Y
1513992575.9,286047027.7,P
1513992595.7,286047030.6,P
1513992615.6,286047036.2,P
1513992635.4,286047038.5,Y
1513992655.2,286047015.4,P
1513992675.1,286047019.7,P
1513992676.0,286047019.7,P
1513992695.8,286047020.7,Y
1513992715.6,286047007.6,P
1513992735.5,286047006.2,N
1513992755.3,286047007.8,N
1513992775.1,286047010.2,N
1513992795.9,286047013.9,N
1513992815.7,286047014.3,N
1513992835.5,286047016.1,Y
1513992855.4,286047006.1,P
1513992875.2,286047013.1,P
1513992895.0,286047009.6,P
1513992895.9,286047009.6,Y
1513992915.8,286047000.2,P
1513992935.6,286046997.1,N
1513992955.4,286046999.5,N
1513992975.3,286046993.8,N
1513992995.1,286046989.4,N
1513992996.0,286046989.4,N
1513993015.8,286046986.6,N
1513993035.7,286046983.7,N
1513993055.5,286046984.7,N
1513993075.3,286046985.6,N
1513993095.1,286046987.1,N
1513993115.9,286046986.6,N
1513993135.7,286046982.1,N
1513993155.5,286046979.6,N
1513993175.4,286046979.3,N
1513993195.2,286046978.2,N
1513993215.0,286046977.5,N
1513993215.9,286046977.5,N
1513993235.8,286046976.4,N
1513993255.6,286046976.4,N
1513993275.4,286046973.0,Y
1513993295.3,286046986.0,P
1513993315.1,286046984.9,P
1513993316.0,286046984.9,P
1513993335.8,286046980.7,Y
1513993355.7,286046993.7,P
1513993375.5,286046992.8,N
1513993395.3,286046986.3,P
1513993415.2,286046978.9,Y
1513993435.9,286046989.6,P
1513993455.7,286046988.6,P
1513993475.6,286046987.4,P
1513993495.4,286046989.1,Y
1513993515.2,286046995.4,P
1513993535.1,286046992.2,N
1513993536.0,286046992.2,N
1513993555.8,286046989.0,Y
1513993575.6,286046995.3,P
1513993595.5,286046995.3,P
1513993615.3,286046995.5,P
1513993635.1,286046992.1,Y
1513993655.9,286046994.0,P
1513993675.7,286046991.0,P
1513993695.5,286046989.0,P
1513993715.4,286046989.7,Y
1513993735.2,286046999.1,P
1513993755.0,286046998.3,N
1513993755.9,286046998.3,N
1513993775.8,286046999.6,N
1513993795.6,286046997.3,N
1513993815.4,286046998.3,N
1513993835.3,286046998.1,N
1513993855.1,286047003.7,N
1513993856.0,286047003.7,N
1513993875.8,286047004.5,N
1513993895.7,286047003.8,N
1513993915.5,286047003.1,N
1513993935.3,286047005.5,N
1513993955.2,286047006.0,N
1513993975.9,286047001.3,N
1513993995.7,286047001.8,N
1513994015.5,286047001.6,N
1513994035.4,286047004.9,N
1513994055.2,286047007.8,N
1513994075.0,286047010.4,N
1513994075.9,286047010.4,N
1513994095.8,286047009.6,N
1513994115.6,286047008.4,N
1513994135.4,286047006.8,N
1513994155.3,286047007.4,N
1513994175.1,286047008.0,N
1513994176.0,286047008.0,N
1513994195.8,286047010.3,N
1513994215.7,286047010.7,N
1513994235.5,286047012.2,N
1513994255.3,286047006.3,N
1513994275.2,286047008.3,N
1513994295.9,286047008.8,N
1513994315.7,286047006.7,N
1513994335.6,286047015.5,Y
1513994355.4,286047012.0,P
1513994375.2,286047008.9,N
1513994395.1,286047006.8,N
1513994396.0,286047006.8,N
